Weather History for Sierra Vista, AZ

Change the Weather History Date:

Sunday, July 28, 2013

  Actual Average Record
Temperature  
Mean Temperature 80 °F -  
Max Temperature 90 °F 87 °F 95 °F (2000)
Min Temperature 69 °F 68 °F 32 °F (2011)
Cooling Degree Days 14    
Growing Degree Days 30 (Base 50)    
Moisture  
Dew Point 55 °F    
Average Humidity 44    
Maximum Humidity 71    
Minimum Humidity 26    
Precipitation  
Precipitation 0.00 in - - ()
Sea Level Pressure  
Sea Level Pressure 29.89 in    
Wind  
Wind Speed 6 mph (WSW)    
Max Wind Speed 17 mph    
Max Gust Speed 26 mph    
Visibility 10 miles    
Events      
Averages and records for this station are not official NWS values.
T = Trace of Precipitation, MM = Missing Value Source: NWS Daily Summary

Daily Weather History Graph

Daily Weather History Graph

Search for Another Location

Airport:

Trip Planner

Search our weather history database for the weather conditions in past years. The results will help you decide how hot, cold, wet, or windy it might be!

Date:

Astronomy

Jul. 28, 2013 Rise Set
Actual Time 5:35 AM MST 7:20 PM MST
Civil Twilight 5:08 AM MST 7:46 PM MST
Nautical Twilight 4:36 AM MST 8:18 PM MST
Astronomical Twilight 4:02 AM MST 8:52 PM MST
Moon 11:14 PM MST (7/28) 11:51 AM MST (7/28)
Length of Visible Light 14h 38m
Length of Day
13h 45m
Waning Gibbous, 60% of the Moon is Illuminated
Jul 28
Waning Gibbous
Jul 29
Last Quarter
Aug 6
New
Aug 14
First Quarter
Aug 20
Full

Hourly Weather History & Observations

Time (MST) Temp. Heat Index Dew Point Humidity Pressure Visibility Wind Dir Wind Speed Gust Speed Precip Events Conditions
12:56 AM 72.0 °F - 59.0 °F 64% 29.92 in 10.0 mi SW 4.6 mph - N/A   Clear
1:56 AM 73.0 °F - 57.9 °F 59% 29.91 in 10.0 mi Calm Calm - N/A   Partly Cloudy
2:56 AM 70.0 °F - 60.1 °F 71% 29.90 in 10.0 mi SSW 3.5 mph - N/A   Clear
3:56 AM 70.0 °F - 59.0 °F 68% 29.89 in 10.0 mi South 5.8 mph - N/A   Clear
4:56 AM 70.0 °F - 59.0 °F 68% 29.90 in 10.0 mi SW 3.5 mph - N/A   Clear
5:56 AM 69.1 °F - 59.0 °F 70% 29.91 in 10.0 mi West 3.5 mph - N/A   Clear
6:56 AM 71.1 °F - 61.0 °F 70% 29.92 in 10.0 mi Calm Calm - N/A   Clear
7:56 AM 75.9 °F - 60.1 °F 58% 29.93 in 10.0 mi Calm Calm - N/A   Clear
8:56 AM 80.1 °F 80.9 °F 60.1 °F 50% 29.92 in 10.0 mi Variable 4.6 mph - N/A   Clear
9:56 AM 82.9 °F 83.2 °F 60.1 °F 46% 29.91 in 10.0 mi NNE 8.1 mph - N/A   Clear
10:56 AM 86.0 °F - 50.0 °F 29% 29.91 in 10.0 mi West 11.5 mph - N/A   Partly Cloudy
11:56 AM 88.0 °F - 51.1 °F 28% 29.90 in 10.0 mi West 13.8 mph 21.9 mph N/A   Clear
12:56 PM 90.0 °F - 52.0 °F 27% 29.88 in 10.0 mi WSW 10.4 mph 23.0 mph N/A   Partly Cloudy
1:56 PM 89.1 °F - 52.0 °F 28% 29.86 in 10.0 mi WSW 13.8 mph 21.9 mph N/A   Partly Cloudy
2:56 PM 90.0 °F 87.5 °F 53.1 °F 28% 29.85 in 10.0 mi West 17.3 mph 23.0 mph N/A   Partly Cloudy
3:56 PM 89.1 °F - 52.0 °F 28% 29.83 in 10.0 mi West 15.0 mph 26.5 mph N/A   Partly Cloudy
4:56 PM 89.1 °F - 50.0 °F 26% 29.83 in 10.0 mi West 15.0 mph 26.5 mph N/A   Clear
5:56 PM 87.1 °F - 48.9 °F 27% 29.85 in 10.0 mi West 17.3 mph - N/A   Clear
6:56 PM 84.0 °F - 50.0 °F 31% 29.86 in 10.0 mi West 8.1 mph - N/A   Clear
7:56 PM 81.0 °F - 51.1 °F 35% 29.88 in 10.0 mi SW 8.1 mph - N/A   Clear
8:56 PM 79.0 °F - 51.1 °F 38% 29.88 in 10.0 mi SW 9.2 mph - N/A   Clear
9:56 PM 75.9 °F - 52.0 °F 43% 29.90 in 10.0 mi South 6.9 mph - N/A   Clear
10:55 PM 78.8 °F - 51.8 °F 39% 29.89 in 10.0 mi SSW 4.6 mph - N/A   Partly Cloudy
11:55 PM 78.8 °F - 48.2 °F 34% 29.88 in 10.0 mi West 3.5 mph - N/A   Mostly Cloudy